Location: Grossmotten
(48.5500°N, 15.3833°E)
Time: 02:50:11
(UTC+00:00)

ALOS - Pass Details

Date: 15 November 2019
Orbit: 683 x 685 km, 97.8° (Epoch: 09 December)

Event Time Altitude Azimuth Distance (km) Brightness Sun altitude
Rises 05:20:31 0° 6° (N) 3,061 5.5 -7.7°
Reaches altitude 10° 05:22:54 10° 358° (N) 2,140 4.6 -7.3°
Maximum altitude 05:27:08 35° 293° (WNW) 1,103 2.8 -6.7°
Drops below altitude 10° 05:31:21 10° 228° (SW) 2,126 4.5 -6.0°
Sets 05:33:43 0° 220° (SW) 3,038 5.4 -5.7°
